Find Gstar 3

NORAD ID: 19483 Int'l Des: 1988-081 Owner: GTE Country: US operational
HEOCIRCULARGSO

Live Position

Loading 3D Globe...

About Gstar 3

Description loading...

Upcoming Passes

Passes for default location (London). Set your location on the main map for personalized predictions.

Altitude History

Loading altitude history...

Two-Line Element Set

1 19483U 88081A 26107.13266567 -.00000112 00000-0 00000-0 0 9997
2 19483 11.1938 318.8161 0004697 205.3037 343.5920 1.00272333133985
Epoch: Apr 17, 2026 • Age: 14 hours

Current Status

Altitude 35803.8 km
Velocity 3.07 km/s
Sub-Earth Point 8.13°N, 105.87°W
Launch Date Sep 8, 1988
Age 37.6 years
Type other

Technical Details

Classification Payload
Mass 726.00 kg
Dry Mass 370.00 kg
Total Mass 1243.00 kg
Length 1.00 m
Diameter 1.30 m
Span 14.30 m
Shape Box + 2 Pan
Manufacturer GEEW
Bus Type AS3000
Phase Status In Orbit
Owner/State GTE/US

Most Searched